Satellite: FCAL
Catalog number: 29667
Epoch time:      08115.58455823
Element set:     910
Inclination:      051.6260 deg
RA of node:       235.4624 deg
Eccentricity:    0.0000776
Arg of perigee:   029.3096 deg
Mean anomaly:     330.8045 deg
Mean motion:   16.15462234 rev/day
Decay rate:    2.19345e-03 rev/day^2
Epoch rev:            7791
Checksum:              301

Satellite: FALCON
Catalog number: 30776
Epoch time:      08114.43887708
Element set:    0304
Inclination:      035.4327 deg
RA of node:       125.5220 deg
Eccentricity:    0.0001592
Arg of perigee:   284.3866 deg
Mean anomaly:     075.6674 deg
Mean motion:   15.02958654 rev/day
Decay rate:       4.33e-06 rev/day^2
Epoch rev:           06190
Checksum:              299

Satellite: MAST
Catalog number: 31126
Epoch time:      08114.71709862
Element set:     309
Inclination:      098.0417 deg
RA of node:       181.3180 deg
Eccentricity:    0.0095550
Arg of perigee:   140.3865 deg
Mean anomaly:     220.4391 deg
Mean motion:   14.53417165 rev/day
Decay rate:        8.2e-07 rev/day^2
Epoch rev:            5410
Checksum:              269

Satellite: CAPE1
Catalog number: 31130
Epoch time:      08114.68204342
Element set:    0296
Inclination:      098.0418 deg
RA of node:       180.4183 deg
Eccentricity:    0.0103483
Arg of perigee:   142.9609 deg
Mean anomaly:     217.8782 deg
Mean motion:   14.51954252 rev/day
Decay rate:       1.03e-06 rev/day^2
Epoch rev:           05381
Checksum:              277

/EX






More information about the Keps mailing list